{"data":{"norad_id":60921,"intl_designator":"2024-154U","name":"STARLINK-32356","alt_names":[],"object_type":"PAYLOAD","status":"ACTIVE","operator":null,"country":"US","launch_date":"2024-08-31","launch_site_code":"AFETR","launch_vehicle":null,"mission":null,"orbit_class":"UNKNOWN","rcs_meters":null,"size_class":null,"mass_kg":null,"dimensions":null,"purposes":["comms"],"wikipedia_slug":null,"has_3d_model":false,"image_url":null,"decayed_at":null,"tle_current":{"epoch":"2026-09-21T21:25:04.830528Z","epoch_age_seconds":68601,"freshness":"FRESH","line1":"1 60921U 24154U   26264.89241702 -.00000748  00000+0 -12323-4 0  9992","line2":"2 60921  53.1610  91.1376 0001624  95.7248 264.3939 15.31694512116406","mean_motion":15.31694512,"eccentricity":0.0001624,"inclination_deg":53.161,"raan_deg":91.1376,"arg_perigee_deg":95.7248,"mean_anomaly_deg":264.3939,"bstar":-1.2323e-5,"rev_number":11640,"period_min":94.013524806571,"perigee_km":469.64409443611,"apogee_km":471.86861499773,"semimajor_km":6848.8933547169,"source":"CELESTRAK","updated_at":"2026-09-22T09:00:49.287184Z"}}}